Location: Casilda
(33.0440°S, 61.1680°W)
Time: 19:36:33
(UTC-03:00)

ISS - Pass Details

Date: 26 November 2022
Orbit: 414 x 420 km, 51.6° (Epoch: 02 December)

Event Time Altitude Azimuth Distance (km) Brightness Sun altitude
Exits shadow 04:26:02 22° 256° (WSW) 992 -2.2 -15.7°
Maximum altitude 04:27:19 28° 217° (SW) 829 -2.3 -15.5°
Drops below altitude 10° 04:30:22 10° 155° (SSE) 1,536 0.1 -15.0°
Sets 04:32:40 0° 143° (SE) 2,402 1.7 -14.6°
